This is the latest recevied weather packets stored in our database for station/object K4MGY-13. If no packets are shown the sender has not sent any weather packets the latest 1 day(s).
| Time | Temp. | Humidity | Pressure | Rain* | Wind** | Luminosity | Snow |
|---|---|---|---|---|---|---|---|
| 1778075680 | 12.78° C | 95% | 1011.5 hPa | 1.52 mm | - | - | - |
| 1778075020 | 12.78° C | 96% | 1011.5 hPa | 2.79 mm | - | - | - |
| 1778074690 | 13.33° C | 96% | 1010.8 hPa | 2.79 mm | - | - | - |
| 1778074030 | 12.78° C | 96% | 1009.8 hPa | 3.05 mm | - | - | - |
| 1778073701 | 12.78° C | 96% | 1010.2 hPa | 3.05 mm | - | - | - |
| 1778073070 | 12.78° C | 96% | 1010.5 hPa | 3.05 mm | - | - | - |
| 1778072742 | 12.78° C | 96% | 1010.8 hPa | 2.79 mm | - | - | - |
| 1778071480 | 12.78° C | 94% | 1012.2 hPa | 0.51 mm | - | - | - |
| 1778070190 | 12.78° C | 95% | 1011.5 hPa | 0 mm | - | - | - |
| 1778069560 | 12.78° C | 94% | 1011.2 hPa | 0 mm | - | - | - |
| 1778068930 | 13.33° C | 95% | 1010.8 hPa | 0.51 mm | - | - | - |
| 1778067970 | 13.33° C | 95% | 1009.8 hPa | 1.02 mm | - | - | - |
| 1778067640 | 13.33° C | 95% | 1009.8 hPa | 1.52 mm | - | - | - |
| 1778067310 | 13.33° C | 94% | 1009.1 hPa | 1.78 mm | - | - | - |
| 1778066980 | 13.89° C | 94% | 1009.1 hPa | 2.29 mm | - | - | - |
| 1778066380 | 13.89° C | 94% | 1009.8 hPa | 3.3 mm | - | - | - |
| 1778065750 | 14.44° C | 93% | 1009.1 hPa | 3.81 mm | - | - | - |
| 1778065450 | 14.44° C | 93% | 1008.5 hPa | 3.56 mm | - | - | - |
| 1778062930 | 17.22° C | 90% | 1009.5 hPa | 8.38 mm | - | - | - |
| 1778062629 | 17.78° C | 92% | 1009 hPa | 8.64 mm | - | - | - |
| 1778062000 | 18.89° C | 95% | 1008.5 hPa | 9.4 mm | - | - | - |
| 1778061370 | 18.89° C | 94% | 1008.1 hPa | 7.87 mm | - | - | - |
| 1778061070 | 18.89° C | 94% | 1007.8 hPa | 7.62 mm | - | - | - |
| 1778059151 | 18.89° C | 91% | 1007.5 hPa | 3.81 mm | - | - | - |
| 1778057201 | 20.56° C | 84% | 1007.1 hPa | 1.27 mm | - | - | - |
* Rain latest hour (hover to see other rain measurements)
** Current wind speed in m/s (hover to see current wind gust speed)